| time (UTC) | temp F | wind direction | speed knots | gust knots | rain 1hr in | rain 24hr in | rain mn in | humidity % | barometer mb |
| 20260503034450 | 75 | 28 | 1.7 | 1.7 | 0.00 | 0.80 | 0.80 | 98 | 1015.9 |
| 20260503033450 | 75 | 93 | 0.9 | 1.7 | 0.00 | 0.80 | 0.80 | 98 | 1016.2 |
| 20260503032450 | 75 | 115 | 0.9 | 0.9 | 0.00 | 0.79 | 0.80 | 97 | 1016.1 |
| 20260503031450 | 75 | 1 | 2.6 | 2.6 | 0.00 | 0.79 | 0.79 | 97 | 1015.8 |
| 20260503030450 | 75 | 100 | 1.7 | 1.7 | 0.00 | 0.79 | 0.79 | 97 | 1015.9 |
| 20260503025450 | 75 | 356 | 1.7 | 2.6 | 0.00 | 0.79 | 0.79 | 98 | 1015.6 |
| 20260503024450 | 75 | 0 | 0.0 | 0.9 | 0.00 | 0.80 | 0.79 | 97 | 1015.8 |
| 20260503023450 | 75 | 321 | 0.9 | 0.9 | 0.00 | 0.80 | 0.79 | 97 | 1015.6 |
| 20260503022450 | 75 | 343 | 1.7 | 2.6 | 0.00 | 0.80 | 0.79 | 97 | 1015.7 |
| 20260503021450 | 75 | 268 | 1.7 | 1.7 | 0.00 | 0.80 | 0.79 | 98 | 1015.3 |
| 20260503020450 | 75 | 0 | 0.0 | 0.9 | 0.00 | 0.80 | 0.79 | 98 | 1015.4 |
| 20260503015450 | 75 | 262 | 1.7 | 1.7 | 0.00 | 0.80 | 0.79 | 97 | 1015.4 |
| 20260503014450 | 75 | 201 | 1.7 | 1.7 | 0.00 | 0.80 | 0.79 | 97 | 1015.5 |
| 20260503013450 | 75 | 240 | 1.7 | 2.6 | 0.00 | 0.79 | 0.79 | 97 | 1015.4 |
| 20260503012450 | 75 | 282 | 0.9 | 1.7 | 0.00 | 0.79 | 0.79 | 97 | 1015.2 |
| 20260503011450 | 75 | 0 | 0.0 | 0.9 | 0.00 | 0.79 | 0.79 | 96 | 1015.3 |
| 20260503010450 | 75 | 341 | 2.6 | 3.5 | 0.01 | 0.79 | 0.79 | 96 | 1015.3 |
| 20260503005450 | 75 | 334 | 2.6 | 4.3 | 0.01 | 0.79 | 0.79 | 97 | 1014.9 |
| 20260503004450 | 75 | 324 | 3.5 | 4.3 | 0.01 | 0.79 | 0.79 | 97 | 1015.0 |
| 20260503003450 | 74 | 323 | 1.7 | 2.6 | 0.02 | 0.79 | 0.79 | 97 | 1014.9 |
| 20260503002450 | 74 | 291 | 0.9 | 1.7 | 0.03 | 0.79 | 0.79 | 97 | 1014.8 |
| 20260503001450 | 74 | 267 | 0.9 | 0.9 | 0.03 | 0.79 | 0.78 | 97 | 1015.0 |
| 20260503000450 | 74 | 0 | 0.0 | 0.9 | 0.03 | 0.78 | 0.78 | 97 | 1015.1 |
| 20260502235450 | 75 | 309 | 2.6 | 3.5 | 0.04 | 0.78 | 0.78 | 98 | 1015.1 |
| 20260502234450 | 75 | 0 | 0.0 | 0.9 | 0.07 | 0.78 | 0.77 | 98 | 1015.2 |
| 20260502233450 | 75 | 310 | 2.6 | 2.6 | 0.07 | 0.77 | 0.77 | 98 | 1015.2 |
| 20260502232450 | 75 | 259 | 0.9 | 1.7 | 0.09 | 0.76 | 0.76 | 98 | 1015.0 |
| 20260502231450 | 75 | 0 | 0.0 | 1.7 | 0.12 | 0.75 | 0.75 | 98 | 1015.5 |
| 20260502230450 | 75 | 294 | 1.7 | 1.7 | 0.16 | 0.75 | 0.74 | 98 | 1015.4 |
| 20260502225450 | 75 | 315 | 2.6 | 4.3 | 0.16 | 0.73 | 0.74 | 98 | 1015.3 |
| 20260502224450 | 75 | 297 | 1.7 | 2.6 | 0.15 | 0.71 | 0.72 | 98 | 1015.2 |
| 20260502223450 | 75 | 260 | 0.9 | 1.7 | 0.15 | 0.69 | 0.69 | 99 | 1014.8 |
| 20260502222450 | 75 | 330 | 0.9 | 1.7 | 0.18 | 0.68 | 0.67 | 98 | 1014.8 |
| 20260502221450 | 75 | 0 | 0.0 | 1.7 | 0.18 | 0.66 | 0.64 | 98 | 1014.7 |
| 20260502220450 | 76 | 236 | 0.9 | 1.7 | 0.20 | 0.63 | 0.59 | 99 | 1014.8 |
| 20260502215450 | 75 | 0 | 0.0 | 1.7 | 0.20 | 0.62 | 0.57 | 98 | 1014.7 |
| 20260502214450 | 76 | 0 | 0.0 | 0.9 | 0.20 | 0.60 | 0.55 | 98 | 1014.9 |
| 20260502213450 | 76 | 208 | 0.9 | 2.6 | 0.20 | 0.59 | 0.54 | 98 | 1015.0 |
| 20260502212450 | 76 | 0 | 0.0 | 0.9 | 0.19 | 0.53 | 0.49 | 98 | 1014.9 |
| 20260502211450 | 76 | 161 | 2.6 | 2.6 | 0.26 | 0.49 | 0.46 | 98 | 1015.0 |
| 20260502210450 | 77 | 141 | 0.9 | 1.7 | 0.34 | 0.43 | 0.39 | 98 | 1014.9 |
| 20260502205450 | 77 | 106 | 0.9 | 1.7 | 0.35 | 0.41 | 0.36 | 98 | 1014.8 |
| 20260502204450 | 77 | 78 | 0.9 | 0.9 | 0.35 | 0.40 | 0.35 | 98 | 1014.5 |
| 20260502203450 | 77 | 45 | 0.9 | 1.7 | 0.33 | 0.38 | 0.33 | 97 | 1014.5 |
| 20260502202450 | 77 | 88 | 5.2 | 5.2 | 0.28 | 0.34 | 0.31 | 97 | 1014.2 |
| 20260502201450 | 77 | 73 | 0.9 | 1.7 | 0.16 | 0.22 | 0.23 | 96 | 1013.9 |
| 20260502200450 | 78 | 96 | 7.0 | 7.8 | 0.03 | 0.09 | 0.07 | 94 | 1013.5 |
| 20260502195450 | 80 | 110 | 6.1 | 8.7 | 0.00 | 0.05 | 0.00 | 90 | 1013.5 |
| 20260502194450 | 82 | 99 | 2.6 | 7.0 | 0.00 | 0.05 | 0.00 | 87 | 1012.9 |
| 20260502193450 | 82 | 164 | 3.5 | 3.5 | 0.00 | 0.05 | 0.00 | 88 | 1013.0 |
| 20260502192450 | 83 | 153 | 0.9 | 3.5 | 0.00 | 0.05 | 0.00 | 86 | 1013.1 |
| 20260502191450 | 83 | 144 | 2.6 | 2.6 | 0.00 | 0.05 | 0.00 | 86 | 1012.8 |
| 20260502190450 | 84 | 162 | 1.7 | 1.7 | 0.00 | 0.05 | 0.00 | 86 | 1012.9 |
| 20260502185450 | 84 | 174 | 2.6 | 4.3 | 0.00 | 0.05 | 0.00 | 85 | 1012.9 |
| 20260502184450 | 84 | 190 | 1.7 | 4.3 | 0.00 | 0.05 | 0.00 | 84 | 1012.8 |
| 20260502183450 | 84 | 180 | 2.6 | 3.5 | 0.00 | 0.05 | 0.00 | 84 | 1013.2 |
| 20260502182450 | 84 | 98 | 2.6 | 3.5 | 0.00 | 0.06 | 0.00 | 85 | 1013.3 |
| 20260502181450 | 84 | 210 | 1.7 | 1.7 | 0.00 | 0.08 | 0.00 | 85 | 1013.5 |
| 20260502180450 | 85 | 201 | 2.6 | 3.5 | 0.00 | 0.12 | 0.00 | 83 | 1013.7 |
| 20260502170450 | 87 | 186 | 1.7 | 3.5 | 0.00 | 0.12 | 0.00 | 80 | 1014.2 |
| 20260502163450 | 86 | 208 | 1.7 | 1.7 | 0.00 | 0.12 | 0.00 | 81 | 1014.8 |
| 20260502162450 | 86 | 265 | 2.6 | 4.3 | 0.00 | 0.12 | 0.00 | 81 | 1015.1 |
| 20260502161450 | 86 | 216 | 3.5 | 4.3 | 0.00 | 0.12 | 0.00 | 82 | 1015.1 |
| 20260502160450 | 85 | 0 | 0.0 | 0.9 | 0.00 | 0.12 | 0.00 | 84 | 1015.4 |
| 20260502151450 | 84 | 264 | 0.9 | 2.6 | 0.00 | 0.12 | 0.00 | 86 | 1014.8 |
| 20260502150450 | 83 | 122 | 0.9 | 1.7 | 0.00 | 0.12 | 0.00 | 87 | 1014.7 |
| 20260502130450 | 80 | 324 | 2.6 | 4.3 | 0.00 | 0.12 | 0.00 | 91 | 1013.9 |
| 20260502123450 | 80 | 314 | 1.7 | 2.6 | 0.00 | 0.12 | 0.00 | 91 | 1013.5 |
| 20260502122450 | 80 | 338 | 3.5 | 4.3 | 0.00 | 0.12 | 0.00 | 92 | 1013.5 |
| 20260502121450 | 80 | 330 | 2.6 | 3.5 | 0.00 | 0.12 | 0.00 | 93 | 1013.4 |
| 20260502120450 | 80 | 319 | 3.5 | 4.3 | 0.00 | 0.12 | 0.00 | 93 | 1012.9 |
| 20260502115450 | 79 | 303 | 1.7 | 3.5 | 0.00 | 0.12 | 0.00 | 94 | 1012.9 |
| 20260502114450 | 79 | 326 | 1.7 | 1.7 | 0.00 | 0.12 | 0.00 | 94 | 1012.4 |
| 20260502113450 | 79 | 291 | 1.7 | 1.7 | 0.00 | 0.12 | 0.00 | 94 | 1012.5 |
| 20260502112450 | 79 | 296 | 1.7 | 1.7 | 0.00 | 0.12 | 0.00 | 94 | 1012.5 |
| 20260502111450 | 79 | 277 | 0.9 | 1.7 | 0.00 | 0.12 | 0.00 | 94 | 1012.7 |
| 20260502110450 | 79 | 326 | 0.9 | 0.9 | 0.00 | 0.12 | 0.00 | 94 | 1012.4 |
| 20260502105450 | 79 | 289 | 0.9 | 1.7 | 0.00 | 0.12 | 0.00 | 94 | 1012.1 |
| 20260502104450 | 79 | 267 | 0.9 | 1.7 | 0.00 | 0.12 | 0.00 | 94 | 1012.2 |
| 20260502103450 | 79 | 0 | 0.0 | 0.9 | 0.00 | 0.12 | 0.00 | 94 | 1012.3 |
| 20260502102450 | 79 | 300 | 2.6 | 3.5 | 0.00 | 0.12 | 0.00 | 94 | 1012.2 |
| 20260502101450 | 79 | 304 | 3.5 | 3.5 | 0.00 | 0.12 | 0.00 | 94 | 1012.3 |
| 20260502100450 | 79 | 250 | 0.9 | 0.9 | 0.00 | 0.12 | 0.00 | 94 | 1011.8 |
| 20260502091450 | 79 | 332 | 4.3 | 4.3 | 0.00 | 0.12 | 0.00 | 94 | 1011.4 |
| 20260502090450 | 79 | 326 | 3.5 | 3.5 | 0.00 | 0.12 | 0.00 | 94 | 1011.2 |
| 20260502071450 | 80 | 312 | 1.7 | 2.6 | 0.00 | 0.12 | 0.00 | 95 | 1012.3 |
| 20260502070450 | 80 | 281 | 1.7 | 2.6 | 0.00 | 0.12 | 0.00 | 95 | 1012.7 |
| 20260502065450 | 80 | 276 | 0.9 | 1.7 | 0.00 | 0.12 | 0.00 | 95 | 1012.4 |
| 20260502064450 | 80 | 340 | 0.9 | 2.6 | 0.00 | 0.12 | 0.00 | 94 | 1012.6 |
| 20260502063450 | 80 | 301 | 1.7 | 2.6 | 0.00 | 0.12 | 0.00 | 94 | 1013.0 |
| 20260502062450 | 80 | 287 | 2.6 | 2.6 | 0.00 | 0.12 | 0.00 | 95 | 1012.7 |
| 20260502061450 | 80 | 341 | 1.7 | 1.7 | 0.00 | 0.12 | 0.00 | 95 | 1012.7 |
| 20260502060450 | 80 | 264 | 0.9 | 0.9 | 0.00 | 0.12 | 0.00 | 96 | 1012.8 |
| 20260502055450 | 80 | 273 | 1.7 | 2.6 | 0.00 | 0.12 | 0.00 | 96 | 1013.0 |
| 20260502054450 | 80 | 223 | 0.9 | 1.7 | 0.00 | 0.12 | 0.00 | 96 | 1012.8 |
| 20260502053450 | 79 | 183 | 0.9 | 1.7 | 0.00 | 0.12 | 0.00 | 96 | 1012.9 |
| 20260502052450 | 80 | 232 | 0.9 | 1.7 | 0.00 | 0.12 | 0.00 | 96 | 1013.3 |
| 20260502051450 | 80 | 270 | 1.7 | 1.7 | 0.00 | 0.12 | 0.00 | 96 | 1012.9 |
| 20260502050450 | 79 | 294 | 0.9 | 1.7 | 0.00 | 0.12 | 0.00 | 96 | 1012.8 |
| 20260502045450 | 79 | 254 | 3.5 | 4.3 | 0.00 | 0.12 | 0.12 | 95 | 1012.5 |
| 20260502044450 | 80 | 274 | 1.7 | 3.5 | 0.00 | 0.12 | 0.12 | 95 | 1012.2 |
| 20260502043450 | 80 | 256 | 1.7 | 1.7 | 0.00 | 0.12 | 0.12 | 95 | 1012.7 |
| 20260502042450 | 80 | 285 | 0.9 | 1.7 | 0.00 | 0.12 | 0.12 | 95 | 1012.8 |
| 20260502041450 | 80 | 360 | 1.7 | 1.7 | 0.00 | 0.12 | 0.12 | 95 | 1013.0 |
| 20260502040450 | 80 | 7 | 0.9 | 1.7 | 0.00 | 0.12 | 0.12 | 95 | 1013.3 |
| 20260502035450 | 80 | 348 | 2.6 | 3.5 | 0.00 | 0.12 | 0.12 | 95 | 1013.3 |